Weather History for KIKV - November, 2013

Change the Weather History Date:

Thursday, November 7, 2013

  Actual Average (KDSM) Record (KDSM)
Temperature  
Mean Temperature 35 °F 44 °F  
Max Temperature 44 °F 53 °F 79 °F (1915)
Min Temperature 26 °F 35 °F -3 °F (1991)
Degree Days  
Heating Degree Days 30 21  
Month to date heating degree days 138  
Since 1 July heating degree days 622  
Cooling Degree Days 0 0  
Month to date cooling degree days 0  
Year to date cooling degree days 1066  
Moisture  
Dew Point 29 °F    
Average Humidity 80    
Maximum Humidity 100    
Minimum Humidity 49    
Precipitation  
Precipitation 0.00 in 0.08 in 1.29 in (1932)
Month to date precipitation 0.59  
Year to date precipitation 33.00  
Snow  
Snow 0.00 in 0.00 in 2.20 in (1925)
Month to date snowfall 0.2  
Since 1 July snowfall 0.6  
Since 1 September snowfall 0.6  
Snow Depth -    
Sea Level Pressure  
Sea Level Pressure 30.29 in    
Wind  
Wind Speed 5 mph (WNW)    
Max Wind Speed 16 mph    
Max Gust Speed 20 mph    
Visibility 10 miles    
Events      
T = Trace of Precipitation, MM = Missing Value Source: NWS Daily Summary

Daily Weather History Graph

Daily Weather History Graph

Search for Another Location

Airport or City:

Trip Planner

Search our weather history database for the weather conditions in past years. The results will help you decide how hot, cold, wet, or windy it might be!

Date:

Astronomy

Nov. 07, 2013 Rise Set
Actual Time 6:53 AM CST 5:01 PM CST
Civil Twilight 6:24 AM CST 5:30 PM CST
Nautical Twilight 5:51 AM CST 6:03 PM CST
Astronomical Twilight 5:18 AM CST 6:36 PM CST
Moon 11:03 AM CST 9:13 PM CST
Length of Visible Light 11h 06m
Length of Day
10h 07m
Waxing Crescent, 23% of the Moon is Illuminated
Nov 7
Waxing Crescent
Nov 9
First Quarter
Nov 17
Full
Nov 25
Last Quarter
Dec 2
New

Hourly Weather History & Observations

Time (CST) Temp. Windchill Dew Point Humidity Pressure Visibility Wind Dir Wind Speed Gust Speed Precip Events Conditions
12:15 AM 28.4 °F - 28.4 °F 100% 30.26 in 10.0 mi Calm Calm - N/A   Clear
12:35 AM 28.4 °F - 26.6 °F 93% 30.26 in 10.0 mi Calm Calm - N/A   Clear
12:55 AM 28.4 °F - 26.6 °F 93% 30.26 in 8.0 mi Calm Calm - N/A   Clear
1:15 AM 28.4 °F 24.6 °F 26.6 °F 93% 30.25 in 9.0 mi SSE 3.5 mph - N/A   Clear
1:55 AM 28.4 °F - 26.6 °F 93% 30.25 in 9.0 mi Calm Calm - N/A   Clear
2:15 AM 28.4 °F 24.6 °F 26.6 °F 93% 30.25 in 10.0 mi SSE 3.5 mph - N/A   Clear
2:35 AM 28.4 °F - 26.6 °F 93% 30.25 in 10.0 mi Calm Calm - N/A   Clear
2:55 AM 28.4 °F - 26.6 °F 93% 30.25 in 10.0 mi Calm Calm - N/A   Clear
3:15 AM 28.4 °F 24.6 °F 28.4 °F 100% 30.24 in 10.0 mi WSW 3.5 mph - N/A   Scattered Clouds
3:35 AM 30.2 °F 25.4 °F 28.4 °F 93% 30.24 in 10.0 mi WSW 4.6 mph - N/A   Partly Cloudy
3:55 AM 32.0 °F 27.5 °F 30.2 °F 93% 30.24 in 10.0 mi WSW 4.6 mph - N/A   Clear
4:15 AM 32.0 °F - 30.2 °F 93% 30.24 in 10.0 mi Calm Calm - N/A   Clear
4:35 AM 32.0 °F 25.6 °F 28.4 °F 87% 30.24 in 10.0 mi West 6.9 mph - N/A   Clear
4:55 AM 32.0 °F 24.8 °F 30.2 °F 93% 30.24 in 10.0 mi West 8.1 mph - N/A   Clear
5:15 AM 32.0 °F 24.2 °F 30.2 °F 93% 30.25 in 10.0 mi West 9.2 mph - N/A   Clear
5:35 AM 32.0 °F 24.8 °F 30.2 °F 93% 30.25 in 10.0 mi West 8.1 mph - N/A   Clear
5:55 AM 32.0 °F 25.6 °F 30.2 °F 93% 30.26 in 10.0 mi WNW 6.9 mph - N/A   Clear
6:15 AM 32.0 °F 25.6 °F 30.2 °F 93% 30.27 in 10.0 mi WNW 6.9 mph - N/A   Clear
6:35 AM 32.0 °F 25.6 °F 30.2 °F 93% 30.27 in 10.0 mi WNW 6.9 mph - N/A   Clear
6:55 AM 30.2 °F 23.4 °F 28.4 °F 93% 30.28 in 10.0 mi NW 6.9 mph - N/A   Clear
7:15 AM 30.2 °F 25.4 °F 28.4 °F 93% 30.29 in 10.0 mi WNW 4.6 mph - N/A   Scattered Clouds
7:35 AM 30.2 °F 23.4 °F 28.4 °F 93% 30.29 in 10.0 mi NW 6.9 mph - N/A   Mostly Cloudy
7:55 AM 30.2 °F 23.4 °F 28.4 °F 93% 30.29 in 10.0 mi NW 6.9 mph - N/A   Partly Cloudy
8:15 AM 32.0 °F 24.8 °F 30.2 °F 93% 30.31 in 10.0 mi WNW 8.1 mph - N/A   Partly Cloudy
8:35 AM 32.0 °F 25.6 °F 30.2 °F 93% 30.31 in 10.0 mi WNW 6.9 mph - N/A   Scattered Clouds
8:55 AM 33.8 °F 26.4 °F 32.0 °F 93% 30.31 in 10.0 mi NW 9.2 mph - N/A   Scattered Clouds
9:15 AM 35.6 °F 28.0 °F 32.0 °F 87% 30.31 in 10.0 mi WNW 10.4 mph - N/A   Overcast
9:35 AM 33.8 °F 25.8 °F 30.2 °F 87% 30.31 in 10.0 mi WNW 10.4 mph - N/A   Overcast
9:55 AM 35.6 °F 27.5 °F 32.0 °F 87% 30.31 in 10.0 mi WNW 11.5 mph - N/A   Overcast
10:15 AM 35.6 °F 28.0 °F 32.0 °F 87% 30.32 in 10.0 mi WNW 10.4 mph - N/A   Overcast
10:35 AM 37.4 °F 30.3 °F 32.0 °F 81% 30.32 in 10.0 mi WNW 10.4 mph - N/A   Scattered Clouds
10:55 AM 39.2 °F 31.6 °F 32.0 °F 75% 30.32 in 10.0 mi West 12.7 mph - N/A   Clear
11:15 AM 41.0 °F 33.5 °F 32.0 °F 70% 30.31 in 10.0 mi WNW 13.8 mph - N/A   Clear
11:35 AM 41.0 °F 34.3 °F 32.0 °F 70% 30.32 in 10.0 mi WNW 11.5 mph - N/A   Clear
11:55 AM 41.0 °F 35.2 °F 32.0 °F 70% 30.31 in 10.0 mi WNW 9.2 mph 16.1 mph N/A   Clear
12:15 PM 42.8 °F 35.4 °F 33.8 °F 70% 30.30 in 10.0 mi NW 15.0 mph - N/A   Clear
12:35 PM 42.8 °F 36.6 °F 33.8 °F 70% 30.30 in 10.0 mi West 11.5 mph 19.6 mph N/A   Partly Cloudy
12:55 PM 44.6 °F 37.4 °F 33.8 °F 66% 30.30 in 10.0 mi WNW 16.1 mph - N/A   Scattered Clouds
1:15 PM 44.6 °F 39.2 °F 33.8 °F 66% 30.30 in 10.0 mi WNW 10.4 mph 17.3 mph N/A   Mostly Cloudy
1:35 PM 44.6 °F 37.8 °F 33.8 °F 66% 30.30 in 10.0 mi WNW 15.0 mph - N/A   Scattered Clouds
1:55 PM 44.6 °F 39.7 °F 32.0 °F 61% 30.30 in 10.0 mi NW 9.2 mph 17.3 mph N/A   Clear
2:15 PM 44.6 °F 38.1 °F 32.0 °F 61% 30.30 in 10.0 mi NW 13.8 mph - N/A   Clear
2:35 PM 44.6 °F 38.4 °F 32.0 °F 61% 30.30 in 10.0 mi WNW 12.7 mph 19.6 mph N/A   Clear
2:55 PM 44.6 °F 37.4 °F 32.0 °F 61% 30.30 in 10.0 mi NW 16.1 mph - N/A   Clear
3:15 PM 44.6 °F 38.8 °F 30.2 °F 57% 30.30 in 10.0 mi WNW 11.5 mph 18.4 mph N/A   Clear
3:35 PM 44.6 °F 38.8 °F 28.4 °F 53% 30.30 in 10.0 mi WNW 11.5 mph - N/A   Clear
3:55 PM 44.6 °F 39.2 °F 28.4 °F 53% 30.30 in 10.0 mi WNW 10.4 mph - N/A   Clear
4:55 PM 42.8 °F 37.5 °F 24.8 °F 49% 30.31 in 10.0 mi WNW 9.2 mph - N/A   Clear
5:15 PM 41.0 °F 35.8 °F 24.8 °F 53% 30.31 in 10.0 mi West 8.1 mph - N/A   Clear
5:35 PM 39.2 °F 34.2 °F 26.6 °F 61% 30.31 in 10.0 mi West 6.9 mph - N/A   Clear
5:55 PM 39.2 °F 34.2 °F 26.6 °F 61% 30.32 in 10.0 mi West 6.9 mph - N/A   Clear
6:15 PM 39.2 °F 35.0 °F 26.6 °F 61% 30.32 in 10.0 mi West 5.8 mph - N/A   Clear
6:35 PM 37.4 °F 32.8 °F 24.8 °F 60% 30.32 in 10.0 mi WSW 5.8 mph - N/A   Clear
6:55 PM 37.4 °F 33.8 °F 24.8 °F 60% 30.32 in 10.0 mi WSW 4.6 mph - N/A   Clear
7:15 PM 35.6 °F 31.7 °F 26.6 °F 70% 30.32 in 10.0 mi WSW 4.6 mph - N/A   Clear
7:35 PM 35.6 °F 31.7 °F 24.8 °F 65% 30.31 in - West 4.6 mph - N/A   Clear
7:55 PM 35.6 °F 31.7 °F 26.6 °F 70% 30.31 in 10.0 mi West 4.6 mph - N/A   Clear
8:15 PM 32.0 °F - 24.8 °F 75% 30.31 in 10.0 mi Calm Calm - N/A   Clear
8:35 PM 30.2 °F - 26.6 °F 86% 30.30 in 10.0 mi Calm Calm - N/A   Clear
8:55 PM 30.2 °F - 26.6 °F 86% 30.31 in 10.0 mi Calm Calm - N/A   Clear
9:15 PM 30.2 °F - 26.6 °F 86% 30.30 in 10.0 mi Calm Calm - N/A   Clear
9:35 PM 28.4 °F 23.3 °F 24.8 °F 86% 30.30 in 10.0 mi WSW 4.6 mph - N/A   Clear
9:55 PM 28.4 °F - 26.6 °F 93% 30.30 in 10.0 mi Calm Calm - N/A   Clear
10:15 PM 28.4 °F - 26.6 °F 93% 30.30 in 10.0 mi Calm Calm - N/A   Clear
10:35 PM 28.4 °F - 24.8 °F 86% 30.30 in 10.0 mi Calm Calm - N/A   Clear
10:55 PM 28.4 °F - 24.8 °F 86% 30.29 in 10.0 mi Calm Calm - N/A   Clear
11:15 PM 26.6 °F 22.6 °F 24.8 °F 93% 30.29 in 10.0 mi SSE 3.5 mph - N/A   Clear
11:35 PM 26.6 °F - 23.0 °F 86% 30.29 in 10.0 mi Calm Calm - N/A   Clear
11:55 PM 28.4 °F 23.3 °F 24.8 °F 86% 30.29 in 10.0 mi South 4.6 mph - N/A   Clear